{"data":{"norad_id":56144,"epoch":"2026-09-20T00:45:01.529280Z","epoch_age_seconds":149152,"freshness":"FRESH","line1":"1 56144U 23046BE  26263.03126770 -.00000234  00000+0  10257-5 0  9999","line2":"2 56144  43.0023 129.3183 0001585 268.0010  92.0660 15.27575312191920","mean_motion":15.27575312,"eccentricity":0.0001585,"inclination_deg":43.0023,"raan_deg":129.3183,"arg_perigee_deg":268.001,"mean_anomaly_deg":92.066,"bstar":1.0257e-6,"rev_number":19192,"period_min":94.267038010366,"perigee_km":481.97563341287,"apogee_km":484.15063385523,"semimajor_km":6861.2001336341,"source":"CELESTRAK","updated_at":"2026-09-21T09:00:33.390708Z"}}